IGO6084 VIDP-VILH

Flight info

Callsign IGO6084
Flight time N/A
Altitude 35000
Route SP W39 LEH
Aircraft A320/M-SDE3FGHIRWY/LB1

Departure

Time 2026-05-07 11:59
Airport Indira Gandhi International Airport (VIDP)

Arrival

Time N/A
Airport Leh Kushok Bakula Rimpochee Airport (VILH)
Time Latitude Longitude Altitude Speed Heading
2026-05-07 11:23 28.55166 77.08361 748 ft 0 kts 331°
2026-05-07 11:49 28.55164 77.08363 749 ft 2 kts 329°
2026-05-07 11:49 28.55151 77.08374 747 ft 3 kts 296°
2026-05-07 11:50 28.55142 77.08393 747 ft 2 kts 311°
2026-05-07 11:50 28.55130 77.08411 747 ft 3 kts 296°
2026-05-07 11:50 28.55124 77.08431 749 ft 3 kts 266°
2026-05-07 11:50 28.55127 77.08449 750 ft 1 kts 241°
2026-05-07 11:51 28.55130 77.08455 746 ft 0 kts 240°
2026-05-07 11:53 28.55123 77.08440 749 ft 4 kts 240°
2026-05-07 11:53 28.55099 77.08395 747 ft 10 kts 239°
2026-05-07 11:53 28.55048 77.08327 748 ft 13 kts 199°
2026-05-07 11:53 28.54956 77.08296 750 ft 15 kts 211°
2026-05-07 11:54 28.54944 77.08181 748 ft 17 kts 285°
2026-05-07 11:54 28.54976 77.08047 749 ft 19 kts 284°
2026-05-07 11:54 28.55010 77.07896 751 ft 21 kts 284°
2026-05-07 11:54 28.55048 77.07731 750 ft 23 kts 284°
2026-05-07 11:55 28.55090 77.07551 751 ft 25 kts 285°
2026-05-07 11:55 28.55135 77.07353 750 ft 27 kts 285°
2026-05-07 11:55 28.55177 77.07171 751 ft 24 kts 284°
2026-05-07 11:55 28.55220 77.06983 749 ft 26 kts 284°
2026-05-07 11:56 28.55145 77.06873 748 ft 16 kts 200°
2026-05-07 11:56 28.55111 77.06860 749 ft 2 kts 197°
2026-05-07 11:56 28.55087 77.06853 748 ft 5 kts 193°
2026-05-07 11:56 28.55041 77.06841 747 ft 8 kts 193°
2026-05-07 11:57 28.54979 77.06825 745 ft 10 kts 193°
2026-05-07 11:57 28.54904 77.06804 748 ft 13 kts 194°
2026-05-07 11:57 28.54806 77.06776 748 ft 16 kts 193°
2026-05-07 11:57 28.54688 77.06772 749 ft 18 kts 149°
2026-05-07 11:58 28.54636 77.06909 750 ft 19 kts 105°
2026-05-07 11:58 28.54623 77.06995 749 ft 4 kts 104°
2026-05-07 11:58 28.54584 77.07172 751 ft 55 kts 104°
2026-05-07 11:58 28.54434 77.07875 748 ft 130 kts 103°
2026-05-07 11:59 28.54170 77.09096 881 ft 181 kts 104°
2026-05-07 11:59 28.53865 77.10469 1534 ft 183 kts 104°
2026-05-07 11:59 28.53564 77.11874 1987 ft 188 kts 104°
2026-05-07 11:59 28.53235 77.13423 2278 ft 213 kts 105°
2026-05-07 12:00 28.53210 77.15221 2653 ft 243 kts 74°
2026-05-07 12:00 28.54236 77.16815 3185 ft 266 kts 37°
2026-05-07 12:00 28.55987 77.17590 3968 ft 278 kts 13°
2026-05-07 12:00 28.57940 77.17860 4799 ft 286 kts
2026-05-07 12:01 28.59930 77.17978 5728 ft 286 kts
2026-05-07 12:01 28.61915 77.18105 6705 ft 285 kts
2026-05-07 12:01 28.63891 77.18296 7627 ft 284 kts
2026-05-07 12:01 28.65857 77.18553 8532 ft 285 kts
2026-05-07 12:02 28.67822 77.18860 9460 ft 285 kts
2026-05-07 12:02 28.69791 77.19199 10175 ft 292 kts
2026-05-07 12:02 28.71878 77.19570 10396 ft 315 kts
2026-05-07 12:02 28.74078 77.19970 10875 ft 325 kts
2026-05-07 12:03 28.76323 77.20384 11548 ft 328 kts
2026-05-07 12:03 28.78558 77.20797 12259 ft 331 kts
2026-05-07 12:03 28.80840 77.21217 12978 ft 334 kts
2026-05-07 12:03 28.83109 77.21632 13681 ft 336 kts
2026-05-07 12:04 28.85463 77.22062 14319 ft 339 kts
2026-05-07 12:04 28.87772 77.22485 14928 ft 343 kts
2026-05-07 12:04 28.90135 77.22918 15558 ft 346 kts
2026-05-07 12:04 28.92529 77.23357 16146 ft 350 kts
2026-05-07 12:05 28.94947 77.23800 16725 ft 355 kts
2026-05-07 12:05 28.97401 77.24250 17324 ft 359 kts
2026-05-07 12:05 28.99878 77.24703 17950 ft 362 kts
2026-05-07 12:05 29.02376 77.25159 18505 ft 365 kts
2026-05-07 12:06 29.04857 77.25613 19064 ft 368 kts
2026-05-07 12:06 29.07399 77.26079 19633 ft 371 kts
2026-05-07 12:06 29.09958 77.26548 20196 ft 374 kts
2026-05-07 12:06 29.12534 77.27020 20745 ft 377 kts
2026-05-07 12:07 29.15132 77.27495 21277 ft 379 kts
2026-05-07 12:07 29.17749 77.27974 21793 ft 382 kts
2026-05-07 12:07 29.20380 77.28457 22301 ft 385 kts
2026-05-07 12:07 29.23037 77.28944 22805 ft 388 kts
2026-05-07 12:08 29.25719 77.29438 23266 ft 392 kts
2026-05-07 12:08 29.28424 77.29935 23683 ft 395 kts
2026-05-07 12:08 29.31150 77.30435 24107 ft 398 kts
2026-05-07 12:08 29.33896 77.30940 24522 ft 401 kts
2026-05-07 12:09 29.36657 77.31449 24936 ft 403 kts
2026-05-07 12:09 29.39433 77.31963 25342 ft 406 kts
2026-05-07 12:09 29.42231 77.32482 25751 ft 408 kts
2026-05-07 12:09 29.45042 77.33002 26159 ft 411 kts
2026-05-07 12:10 29.47870 77.33523 26558 ft 413 kts
2026-05-07 12:10 29.50720 77.34050 26953 ft 416 kts
2026-05-07 12:10 29.53587 77.34580 27304 ft 419 kts
2026-05-07 12:10 29.56474 77.35114 27675 ft 422 kts
2026-05-07 12:11 29.59382 77.35655 28053 ft 425 kts
2026-05-07 12:11 29.62312 77.36199 28440 ft 427 kts
2026-05-07 12:11 29.65257 77.36741 28819 ft 430 kts
2026-05-07 12:11 29.68218 77.37289 29236 ft 433 kts
2026-05-07 12:12 29.71199 77.37845 29619 ft 435 kts
2026-05-07 12:12 29.74201 77.38403 29979 ft 438 kts
2026-05-07 12:12 29.77218 77.38964 30299 ft 440 kts
2026-05-07 12:12 29.80250 77.39527 30621 ft 443 kts
2026-05-07 12:13 29.83306 77.40094 30894 ft 446 kts
2026-05-07 12:13 29.86379 77.40663 31190 ft 449 kts
2026-05-07 12:13 29.89462 77.41237 31620 ft 448 kts
2026-05-07 12:13 29.92533 77.41811 32090 ft 447 kts
2026-05-07 12:14 29.95616 77.42384 32355 ft 451 kts
2026-05-07 12:14 29.98736 77.42964 32483 ft 458 kts
2026-05-07 12:14 30.01915 77.43363 32611 ft 462 kts
2026-05-07 12:14 30.05141 77.43630 32750 ft 468 kts
2026-05-07 12:15 30.08357 77.43897 33007 ft 471 kts
2026-05-07 12:15 30.11673 77.44175 33302 ft 473 kts
2026-05-07 12:15 30.14903 77.44448 33671 ft 473 kts
2026-05-07 12:15 30.18176 77.44723 34060 ft 473 kts
2026-05-07 12:16 30.21454 77.44997 34457 ft 471 kts
2026-05-07 12:16 30.24718 77.45268 34796 ft 471 kts
2026-05-07 12:16 30.27981 77.45542 34894 ft 469 kts
2026-05-07 12:17 30.34382 77.46083 34920 ft 468 kts
2026-05-07 12:17 30.40887 77.46634 34940 ft 470 kts
2026-05-07 12:18 30.47413 77.47176 34926 ft 470 kts
2026-05-07 12:18 30.53938 77.47724 34940 ft 470 kts
2026-05-07 12:19 30.60471 77.48279 34949 ft 470 kts
2026-05-07 12:19 30.66994 77.48833 34958 ft 470 kts
2026-05-07 12:20 30.73521 77.49384 34971 ft 470 kts
2026-05-07 12:20 30.80049 77.49939 34970 ft 470 kts
2026-05-07 12:21 30.86568 77.50491 34994 ft 470 kts
2026-05-07 12:21 30.93074 77.51046 35011 ft 470 kts
2026-05-07 12:22 30.98503 77.51510 35003 ft 471 kts
2026-05-07 12:22 31.05042 77.52071 35013 ft 471 kts
2026-05-07 12:23 31.11562 77.52633 35015 ft 471 kts
2026-05-07 12:23 31.18115 77.53192 35014 ft 472 kts
2026-05-07 12:24 31.24660 77.53730 35016 ft 472 kts
2026-05-07 12:24 31.31222 77.54257 35016 ft 473 kts
2026-05-07 12:25 31.37786 77.54790 35032 ft 473 kts
2026-05-07 12:25 31.41023 77.55056 35038 ft 460 kts
2026-05-07 12:25 31.44166 77.55319 35039 ft 446 kts
2026-05-07 12:26 31.50300 77.55826 35051 ft 441 kts
2026-05-07 12:26 31.56411 77.56320 35050 ft 440 kts
2026-05-07 12:27 31.62524 77.56820 35074 ft 440 kts
2026-05-07 12:27 31.68639 77.57325 35099 ft 440 kts
2026-05-07 12:28 31.74755 77.57828 35115 ft 440 kts
2026-05-07 12:28 31.80866 77.58336 35140 ft 440 kts
2026-05-07 12:29 31.86935 77.58842 35139 ft 440 kts
2026-05-07 12:29 31.93060 77.59351 35150 ft 448 kts
2026-05-07 12:30 31.99415 77.59869 35146 ft 466 kts
2026-05-07 12:30 32.05963 77.60415 35158 ft 473 kts
2026-05-07 12:31 32.12516 77.60970 35165 ft 474 kts
2026-05-07 12:31 32.19087 77.61526 35163 ft 473 kts
2026-05-07 12:32 32.25662 77.62075 35166 ft 473 kts
2026-05-07 12:32 32.32249 77.62617 35183 ft 473 kts
2026-05-07 12:33 32.41972 77.64397 35184 ft 477 kts 17°
2026-05-07 12:33 32.48126 77.67052 35137 ft 456 kts 17°
2026-05-07 12:34 32.51074 77.68325 34885 ft 447 kts 17°
2026-05-07 12:34 32.53961 77.69572 34756 ft 436 kts 17°
2026-05-07 12:34 32.56770 77.70782 34632 ft 425 kts 17°
2026-05-07 12:34 32.59526 77.71969 34361 ft 418 kts 17°
2026-05-07 12:35 32.62217 77.73126 34001 ft 415 kts 17°
2026-05-07 12:35 32.64926 77.74287 33567 ft 413 kts 17°
2026-05-07 12:35 32.67617 77.75444 33155 ft 410 kts 18°
2026-05-07 12:35 32.70283 77.76593 32725 ft 407 kts 18°
2026-05-07 12:36 32.72935 77.77738 32178 ft 407 kts 18°
2026-05-07 12:36 32.75611 77.78895 31635 ft 409 kts 18°
2026-05-07 12:36 32.78280 77.80051 31189 ft 408 kts 19°
2026-05-07 12:36 32.80935 77.81206 30772 ft 405 kts 19°
2026-05-07 12:37 32.83578 77.82356 30362 ft 403 kts 18°
2026-05-07 12:37 32.86236 77.83512 29978 ft 399 kts 18°
2026-05-07 12:37 32.88808 77.84630 29458 ft 398 kts 19°
2026-05-07 12:37 32.91396 77.85753 29066 ft 394 kts 20°
2026-05-07 12:38 32.93956 77.86862 28699 ft 390 kts 19°
2026-05-07 12:38 32.96500 77.87965 28294 ft 388 kts 19°
2026-05-07 12:38 32.99025 77.89062 27879 ft 385 kts 20°
2026-05-07 12:38 33.01530 77.90153 27481 ft 382 kts 19°
2026-05-07 12:39 33.04017 77.91237 27083 ft 379 kts 19°
2026-05-07 12:39 33.06484 77.92312 26701 ft 376 kts 20°
2026-05-07 12:39 33.08934 77.93379 26303 ft 373 kts 20°
2026-05-07 12:39 33.11364 77.94439 25913 ft 370 kts 20°
2026-05-07 12:40 33.13739 77.95477 25536 ft 356 kts 20°
2026-05-07 12:40 33.16031 77.96480 25064 ft 346 kts 20°
2026-05-07 12:40 33.18276 77.97464 24489 ft 341 kts 20°
2026-05-07 12:40 33.20469 77.98428 23893 ft 338 kts 20°
2026-05-07 12:41 33.22664 77.99394 23306 ft 332 kts 20°
2026-05-07 12:41 33.24769 78.00317 23122 ft 314 kts 20°
2026-05-07 12:41 33.26798 78.01171 22749 ft 305 kts 17°
2026-05-07 12:41 33.28859 78.01729 22216 ft 303 kts
2026-05-07 12:42 33.30945 78.01925 21746 ft 298 kts
2026-05-07 12:42 33.32990 78.01780 21401 ft 291 kts 354°
2026-05-07 12:42 33.34952 78.01327 20953 ft 289 kts 346°
2026-05-07 12:42 33.36852 78.00561 20519 ft 289 kts 338°
2026-05-07 12:43 33.38652 77.99594 20298 ft 286 kts 338°
2026-05-07 12:43 33.40458 77.98621 20122 ft 282 kts 338°
2026-05-07 12:43 33.42226 77.97674 19992 ft 275 kts 338°
2026-05-07 12:43 33.43958 77.96751 19880 ft 270 kts 338°
2026-05-07 12:44 33.45658 77.95846 19754 ft 264 kts 338°
2026-05-07 12:44 33.47305 77.94964 19622 ft 254 kts 337°
2026-05-07 12:44 33.48896 77.94110 19531 ft 247 kts 338°
2026-05-07 12:44 33.50432 77.93286 19503 ft 235 kts 338°
2026-05-07 12:45 33.51882 77.92506 19439 ft 222 kts 338°
2026-05-07 12:45 33.53254 77.91767 19354 ft 210 kts 338°
2026-05-07 12:45 33.54573 77.91061 19255 ft 205 kts 338°
2026-05-07 12:45 33.55867 77.90367 19163 ft 203 kts 338°
2026-05-07 12:46 33.57152 77.89677 19072 ft 202 kts 338°
2026-05-07 12:46 33.58434 77.88989 18985 ft 201 kts 338°
2026-05-07 12:46 33.59704 77.88304 19013 ft 200 kts 339°
2026-05-07 12:46 33.60974 77.87620 19121 ft 200 kts 339°
2026-05-07 12:47 33.62245 77.86937 19269 ft 201 kts 338°
2026-05-07 12:47 33.63528 77.86248 19343 ft 202 kts 339°
2026-05-07 12:47 33.64812 77.85557 19340 ft 202 kts 339°
2026-05-07 12:47 33.66093 77.84868 19329 ft 202 kts 339°
2026-05-07 12:48 33.67370 77.84181 19245 ft 198 kts 339°
2026-05-07 12:48 33.68638 77.83500 19145 ft 199 kts 338°
2026-05-07 12:48 33.69886 77.82826 18999 ft 197 kts 338°
2026-05-07 12:48 33.71152 77.82142 18884 ft 200 kts 338°
2026-05-07 12:49 33.72423 77.81454 18738 ft 200 kts 339°
2026-05-07 12:49 33.73682 77.80771 18598 ft 197 kts 339°
2026-05-07 12:49 33.74938 77.80091 18463 ft 198 kts 340°
2026-05-07 12:49 33.76196 77.79411 18328 ft 199 kts 338°
2026-05-07 12:50 33.77425 77.78746 18171 ft 199 kts 339°
2026-05-07 12:50 33.78689 77.78062 18016 ft 198 kts 338°
2026-05-07 12:50 33.79946 77.77384 17867 ft 198 kts 340°
2026-05-07 12:50 33.81194 77.76710 17705 ft 196 kts 338°
2026-05-07 12:51 33.82434 77.76039 17549 ft 194 kts 339°
2026-05-07 12:51 33.83661 77.75374 17407 ft 193 kts 337°
2026-05-07 12:51 33.84888 77.74706 17261 ft 194 kts 338°
2026-05-07 12:51 33.86121 77.74035 17141 ft 194 kts 339°
2026-05-07 12:52 33.87341 77.73374 16997 ft 192 kts 338°
2026-05-07 12:52 33.88562 77.72714 16861 ft 192 kts 338°
2026-05-07 12:52 33.89780 77.72056 16715 ft 191 kts 337°
2026-05-07 12:52 33.90602 77.71611 16635 ft 192 kts 338°
2026-05-07 12:53 33.92204 77.70740 16457 ft 192 kts 336°
2026-05-07 12:53 33.93430 77.70076 16383 ft 194 kts 336°
2026-05-07 12:53 33.94664 77.69406 16330 ft 195 kts 336°
2026-05-07 12:53 33.95486 77.68959 16297 ft 196 kts 336°
2026-05-07 12:54 33.97165 77.68050 16236 ft 198 kts 336°
2026-05-07 12:54 33.98427 77.67364 16193 ft 200 kts 335°
2026-05-07 12:54 33.99684 77.66623 16142 ft 202 kts 330°
2026-05-07 12:54 34.00867 77.65697 16078 ft 205 kts 323°
2026-05-07 12:55 34.01998 77.64642 15955 ft 206 kts 322°
2026-05-07 12:55 34.03127 77.63593 15823 ft 207 kts 322°
2026-05-07 12:55 34.04270 77.62533 15650 ft 206 kts 322°
2026-05-07 12:55 34.05375 77.61509 15466 ft 199 kts 322°
2026-05-07 12:56 34.06441 77.60519 15273 ft 188 kts 322°
2026-05-07 12:56 34.07457 77.59572 15088 ft 181 kts 322°
2026-05-07 12:56 34.08451 77.58645 15097 ft 183 kts 322°
2026-05-07 12:56 34.09476 77.57689 14943 ft 187 kts 322°
2026-05-07 12:57 34.10505 77.56731 14614 ft 185 kts 322°
2026-05-07 12:57 34.11514 77.55837 14491 ft 176 kts 328°
2026-05-07 12:57 34.12591 77.55201 14378 ft 174 kts 339°
2026-05-07 12:57 34.13746 77.54768 14285 ft 172 kts 336°
2026-05-07 12:58 34.14806 77.54094 14100 ft 172 kts 322°
2026-05-07 12:58 34.15694 77.53158 13892 ft 170 kts 309°
2026-05-07 12:58 34.16415 77.52022 13694 ft 172 kts 304°
2026-05-07 12:58 34.17096 77.50831 13497 ft 177 kts 294°
2026-05-07 12:59 34.17333 77.49399 13229 ft 175 kts 262°
2026-05-07 12:59 34.16894 77.48067 12841 ft 173 kts 229°
2026-05-07 12:59 34.15957 77.47207 12408 ft 170 kts 209°
2026-05-07 12:59 34.14890 77.46625 12030 ft 169 kts 189°
2026-05-07 13:00 34.13761 77.46867 11778 ft 171 kts 148°
2026-05-07 13:00 34.12947 77.47911 11495 ft 174 kts 128°
2026-05-07 13:00 34.12360 77.49180 11246 ft 176 kts 102°
2026-05-07 13:00 34.12367 77.50651 11109 ft 178 kts 75°
2026-05-07 13:01 34.12792 77.52018 10965 ft 181 kts 60°
2026-05-07 13:01 34.13246 77.53426 10660 ft 177 kts 76°
2026-05-07 13:01 34.13501 77.54819 11409 ft 163 kts 73°
2026-05-07 13:01 34.13776 77.56083 12205 ft 161 kts 73°
2026-05-07 13:02 34.14090 77.57470 12757 ft 176 kts 76°
2026-05-07 13:02 34.14377 77.58918 13455 ft 178 kts 78°
2026-05-07 13:02 34.14656 77.60330 14039 ft 173 kts 74°
2026-05-07 13:02 34.14876 77.61833 14399 ft 188 kts 90°
2026-05-07 13:03 34.14516 77.63442 14643 ft 213 kts 115°
2026-05-07 13:03 34.13524 77.64828 15049 ft 226 kts 146°
2026-05-07 13:03 34.12146 77.65833 15478 ft 237 kts 151°
2026-05-07 13:03 34.10604 77.66744 15507 ft 260 kts 157°
2026-05-07 13:04 34.08855 77.67597 15842 ft 273 kts 159°
2026-05-07 13:04 34.07108 77.68410 16220 ft 267 kts 159°
2026-05-07 13:04 34.05386 77.69200 16497 ft 266 kts 159°
2026-05-07 13:04 34.03655 77.69995 16892 ft 267 kts 158°
2026-05-07 13:05 34.01909 77.70800 17352 ft 269 kts 159°
2026-05-07 13:05 34.00072 77.71139 17663 ft 272 kts 186°
2026-05-07 13:05 33.98307 77.70319 17195 ft 277 kts 220°
2026-05-07 13:05 33.97207 77.68447 16645 ft 277 kts 256°
2026-05-07 13:06 33.97226 77.66233 16505 ft 261 kts 292°
2026-05-07 13:06 33.98277 77.64504 16385 ft 258 kts 327°
2026-05-07 13:06 33.99345 77.63922 16301 ft 255 kts 346°
2026-05-07 13:06 34.01695 77.63239 16297 ft 263 kts 347°
2026-05-07 13:07 34.02880 77.62899 16295 ft 265 kts 347°
2026-05-07 13:07 34.04613 77.62188 16299 ft 259 kts 328°
2026-05-07 13:07 34.05904 77.60811 16304 ft 238 kts 317°
2026-05-07 13:07 34.07127 77.59572 16285 ft 221 kts 323°
2026-05-07 13:08 34.08317 77.58515 16039 ft 205 kts 326°
2026-05-07 13:08 34.09453 77.57527 15832 ft 203 kts 326°
2026-05-07 13:08 34.10588 77.56532 15388 ft 199 kts 324°
2026-05-07 13:08 34.11715 77.55586 14968 ft 196 kts 332°
2026-05-07 13:09 34.12969 77.55008 14548 ft 190 kts 346°
2026-05-07 13:09 34.14230 77.54603 14163 ft 186 kts 333°
2026-05-07 13:09 34.15283 77.53752 13871 ft 179 kts 314°
2026-05-07 13:09 34.16060 77.52615 13651 ft 173 kts 304°
2026-05-07 13:10 34.16765 77.51437 13586 ft 177 kts 305°
2026-05-07 13:10 34.17410 77.50193 13290 ft 176 kts 285°
2026-05-07 13:10 34.17390 77.48746 12922 ft 172 kts 246°
2026-05-07 13:10 34.16664 77.47693 12540 ft 168 kts 211°
2026-05-07 13:11 34.15619 77.47039 12141 ft 167 kts 210°
2026-05-07 13:11 34.14558 77.46586 11823 ft 168 kts 180°
2026-05-07 13:11 34.13485 77.47131 11524 ft 171 kts 129°
2026-05-07 13:11 34.12826 77.48379 11237 ft 184 kts 117°
2026-05-07 13:12 34.12392 77.49795 11318 ft 178 kts 83°
2026-05-07 13:12 34.12790 77.51141 11210 ft 180 kts 73°
2026-05-07 13:12 34.12950 77.52645 10718 ft 179 kts 65°
2026-05-07 13:12 34.13381 77.53871 10748 ft 163 kts 58°
2026-05-07 13:13 34.13801 77.55048 11594 ft 153 kts 64°
2026-05-07 13:13 34.14334 77.56293 11827 ft 182 kts 59°
2026-05-07 13:13 34.15012 77.57617 12279 ft 190 kts 53°
2026-05-07 13:13 34.15917 77.58749 12887 ft 189 kts 41°
2026-05-07 13:14 34.16851 77.59754 13509 ft 169 kts 41°
2026-05-07 13:14 34.17643 77.60649 14271 ft 146 kts 39°
2026-05-07 13:14 34.18425 77.61497 14633 ft 158 kts 33°
2026-05-07 13:14 34.19410 77.62185 15039 ft 170 kts 18°
2026-05-07 13:15 34.20596 77.62369 15447 ft 176 kts 350°
2026-05-07 13:15 34.21808 77.62018 15735 ft 188 kts 339°
2026-05-07 13:15 34.23091 77.61419 15988 ft 204 kts 337°
2026-05-07 13:15 34.24352 77.60625 16455 ft 203 kts 322°
2026-05-07 13:16 34.25198 77.59339 17232 ft 190 kts 299°
2026-05-07 13:16 34.25663 77.57889 17961 ft 184 kts 289°
2026-05-07 13:16 34.25947 77.56364 18458 ft 188 kts 280°
2026-05-07 13:16 34.26099 77.54780 18930 ft 191 kts 277°
2026-05-07 13:17 34.26213 77.53170 19386 ft 194 kts 271°
2026-05-07 13:17 34.26110 77.51517 19803 ft 203 kts 267°
2026-05-07 13:17 34.25968 77.49772 20165 ft 215 kts 266°
2026-05-07 13:17 34.25812 77.47933 20532 ft 225 kts 266°
2026-05-07 13:18 34.25646 77.46005 20898 ft 236 kts 266°
2026-05-07 13:18 34.25474 77.44007 21258 ft 240 kts 265°
2026-05-07 13:18 34.25301 77.41986 21622 ft 242 kts 266°
2026-05-07 13:18 34.25129 77.39955 21991 ft 245 kts 266°
2026-05-07 13:19 34.24954 77.37900 22363 ft 246 kts 265°
2026-05-07 13:19 34.24775 77.35823 22705 ft 253 kts 266°
2026-05-07 13:19 34.24583 77.33673 23082 ft 261 kts 263°
2026-05-07 13:19 34.24301 77.31444 23304 ft 277 kts 261°
2026-05-07 13:20 34.23949 77.29095 23571 ft 290 kts 260°
2026-05-07 13:20 34.23565 77.26663 23885 ft 302 kts 261°
2026-05-07 13:20 34.23159 77.24109 23973 ft 319 kts 260°
2026-05-07 13:20 34.22735 77.21402 24084 ft 337 kts 260°
2026-05-07 13:21 34.22296 77.18559 24173 ft 352 kts 260°
2026-05-07 13:21 34.21846 77.15623 24271 ft 367 kts 260°
2026-05-07 13:21 34.21373 77.12526 24364 ft 382 kts 260°
2026-05-07 13:21 34.20883 77.09307 24501 ft 396 kts 261°
2026-05-07 13:22 34.20381 77.06012 25189 ft 390 kts 261°
2026-05-07 13:22 34.19899 77.02839 25829 ft 388 kts 261°
2026-05-07 13:22 34.19413 76.99636 26364 ft 389 kts 261°
2026-05-07 13:22 34.18921 76.96410 26865 ft 391 kts 260°
2026-05-07 13:23 34.18425 76.93173 27366 ft 393 kts 260°
2026-05-07 13:23 34.17928 76.89918 27842 ft 395 kts 260°
2026-05-07 13:23 34.17429 76.86650 27858 ft 396 kts 260°
2026-05-07 13:23 34.16929 76.83388 27596 ft 395 kts 260°
2026-05-07 13:24 34.16422 76.80114 27843 ft 398 kts 260°
2026-05-07 13:24 34.15912 76.76833 28392 ft 399 kts 260°
2026-05-07 13:24 34.15399 76.73541 28902 ft 400 kts 260°
2026-05-07 13:24 34.14882 76.70227 29397 ft 402 kts 259°
2026-05-07 13:25 34.14364 76.66904 29894 ft 403 kts 259°
2026-05-07 13:25 34.13851 76.63604 30608 ft 398 kts 259°
2026-05-07 13:25 34.13342 76.60330 31178 ft 395 kts 260°
2026-05-07 13:25 34.12834 76.57083 31670 ft 395 kts 260°
2026-05-07 13:26 34.12325 76.53829 32119 ft 395 kts 260°
2026-05-07 13:26 34.11816 76.50565 31715 ft 399 kts 260°
2026-05-07 13:26 34.11295 76.47223 30786 ft 410 kts 260°
2026-05-07 13:26 34.10764 76.43831 30092 ft 412 kts 259°
2026-05-07 13:27 34.10226 76.40441 29452 ft 410 kts 259°
2026-05-07 13:27 34.09686 76.37067 28861 ft 408 kts 260°
2026-05-07 13:27 34.09149 76.33710 28284 ft 407 kts 259°
2026-05-07 13:27 34.08614 76.30365 27774 ft 404 kts 260°
2026-05-07 13:28 34.08091 76.27075 27509 ft 396 kts 261°
2026-05-07 13:28 34.07578 76.23847 27199 ft 390 kts 261°
2026-05-07 13:28 34.07076 76.20657 26809 ft 386 kts 261°
2026-05-07 13:28 34.06578 76.17481 26409 ft 383 kts 260°
2026-05-07 13:29 34.06079 76.14345 25994 ft 381 kts 261°
2026-05-07 13:29 34.05581 76.11217 25587 ft 378 kts 260°
2026-05-07 13:29 34.05082 76.08114 25170 ft 377 kts 260°
2026-05-07 13:29 34.04581 76.05021 24754 ft 375 kts 260°
2026-05-07 13:30 34.04081 76.01941 24321 ft 374 kts 261°
2026-05-07 13:30 34.03582 75.98873 23884 ft 372 kts 260°
2026-05-07 13:30 34.03084 75.95810 23389 ft 372 kts 260°
2026-05-07 13:30 34.02590 75.92764 22928 ft 369 kts 260°
2026-05-07 13:31 34.02098 75.89745 22482 ft 366 kts 260°
2026-05-07 13:31 34.01606 75.86743 22035 ft 364 kts 260°
2026-05-07 13:31 34.01122 75.83745 21589 ft 363 kts 260°
2026-05-07 13:31 34.00645 75.80761 21124 ft 362 kts 261°
2026-05-07 13:32 34.00172 75.77816 20613 ft 361 kts 261°
2026-05-07 13:32 33.99689 75.74856 20162 ft 360 kts 260°
2026-05-07 13:32 33.99199 75.71896 19706 ft 360 kts 260°
2026-05-07 13:32 33.98709 75.68935 19253 ft 361 kts 261°
2026-05-07 13:33 33.98221 75.65977 18799 ft 361 kts 260°
2026-05-07 13:33 33.97732 75.63007 18267 ft 360 kts 261°
2026-05-07 13:33 33.97248 75.60064 17798 ft 357 kts 261°
2026-05-07 13:33 33.96763 75.57142 17344 ft 354 kts 260°
2026-05-07 13:34 33.96286 75.54260 17149 ft 344 kts 260°
2026-05-07 13:34 33.95377 75.48790 16411 ft 335 kts 260°
2026-05-07 13:34 33.94915 75.45981 15623 ft 347 kts 260°
2026-05-07 13:35 33.94459 75.43227 15841 ft 321 kts 261°
2026-05-07 13:35 33.94037 75.40701 16060 ft 298 kts 261°
2026-05-07 13:35 33.93629 75.38261 15749 ft 296 kts 261°
2026-05-07 13:35 33.93225 75.35840 15247 ft 301 kts 261°
2026-05-07 13:36 33.92815 75.33382 14732 ft 296 kts 261°
2026-05-07 13:36 33.92411 75.30973 14239 ft 292 kts 261°
2026-05-07 13:36 33.92010 75.28587 13715 ft 289 kts 261°
2026-05-07 13:36 33.91612 75.26228 13119 ft 286 kts 260°
2026-05-07 13:37 33.91219 75.23892 12528 ft 283 kts 260°
2026-05-07 13:37 33.90831 75.21578 11966 ft 281 kts 260°
2026-05-07 13:37 33.90447 75.19294 11395 ft 277 kts 259°
2026-05-07 13:37 33.90065 75.17045 10960 ft 271 kts 259°
2026-05-07 13:38 33.89692 75.14857 10599 ft 264 kts 259°
2026-05-07 13:38 33.89331 75.12726 10263 ft 256 kts 259°
2026-05-07 13:38 33.88982 75.10655 9937 ft 249 kts 259°
2026-05-07 13:38 33.88643 75.08641 9592 ft 241 kts 259°
2026-05-07 13:39 33.88316 75.06706 9403 ft 228 kts 258°
2026-05-07 13:39 33.88015 75.04941 9346 ft 202 kts 260°
2026-05-07 13:39 33.87753 75.03410 9260 ft 173 kts 260°
2026-05-07 13:39 33.87524 75.02070 9179 ft 159 kts 260°
2026-05-07 13:40 33.87305 75.00781 9116 ft 156 kts 260°
2026-05-07 13:40 33.87088 74.99503 9048 ft 156 kts 260°
2026-05-07 13:40 33.86873 74.98229 8980 ft 156 kts 260°
2026-05-07 13:40 33.86663 74.96983 8914 ft 156 kts 260°
2026-05-07 13:41 33.86446 74.95704 8840 ft 156 kts 259°
2026-05-07 13:41 33.86277 74.94427 8773 ft 155 kts 268°
2026-05-07 13:41 33.86347 74.93135 8707 ft 154 kts 283°
2026-05-07 13:41 33.86662 74.91907 8621 ft 155 kts 294°
2026-05-07 13:42 33.87214 74.90806 8347 ft 155 kts 311°
2026-05-07 13:42 33.87943 74.89846 8109 ft 157 kts 314°
2026-05-07 13:42 33.88722 74.88900 7895 ft 160 kts 314°
2026-05-07 13:42 33.89524 74.87958 7674 ft 163 kts 316°
2026-05-07 13:43 33.90340 74.87013 7455 ft 163 kts 316°
2026-05-07 13:43 33.91159 74.86070 7234 ft 161 kts 316°
2026-05-07 13:43 33.91960 74.85149 7045 ft 158 kts 317°
2026-05-07 13:43 33.92750 74.84242 6847 ft 155 kts 317°
2026-05-07 13:44 33.93523 74.83354 6661 ft 152 kts 317°
2026-05-07 13:44 33.94271 74.82495 6479 ft 151 kts 317°
2026-05-07 13:44 33.95027 74.81626 6268 ft 150 kts 317°
2026-05-07 13:44 33.95780 74.80761 6056 ft 150 kts 317°
2026-05-07 13:45 33.96528 74.79900 5843 ft 149 kts 317°
2026-05-07 13:45 33.97279 74.79044 5574 ft 148 kts 317°
2026-05-07 13:45 33.97987 74.78237 5473 ft 140 kts 316°
2026-05-07 13:45 33.98568 74.77550 5462 ft 72 kts 314°
2026-05-07 13:46 33.98765 74.77316 5462 ft 30 kts 317°
2026-05-07 13:46 33.98919 74.77143 5459 ft 31 kts 315°
2026-05-07 13:46 33.99073 74.76962 5459 ft 31 kts 316°
2026-05-07 13:46 33.99221 74.76790 5461 ft 30 kts 316°
2026-05-07 13:47 33.99369 74.76617 5462 ft 30 kts 316°
2026-05-07 13:47 33.99518 74.76446 5463 ft 30 kts 317°
2026-05-07 13:47 33.99668 74.76272 5462 ft 32 kts 315°
2026-05-07 13:47 33.99801 74.76137 5458 ft 13 kts 352°
2026-05-07 13:48 33.99860 74.76146 5459 ft 14 kts 14°
2026-05-07 13:48 33.99960 74.76175 5458 ft 17 kts 12°
2026-05-07 13:48 34.00037 74.76118 5457 ft 0 kts 296°
2026-05-07 13:48 34.00039 74.76113 5457 ft 2 kts 297°
2026-05-07 13:49 34.00048 74.76093 5457 ft 4 kts 300°
2026-05-07 13:49 34.00073 74.76062 5456 ft 6 kts 332°
2026-05-07 13:49 34.00113 74.76099 5455 ft 6 kts 52°
2026-05-07 13:49 34.00117 74.76106 5455 ft 1 kts 52°
2026-05-07 13:50 34.00123 74.76116 5455 ft 2 kts 52°
2026-05-07 13:50 34.00128 74.76123 5456 ft 1 kts 52°
2026-05-07 13:50 34.00129 74.76124 5456 ft 0 kts 52°